Time,TemperatureF,DewpointF,PressureIn,WindDirection,WindDirectionDegrees,WindSpeedMPH,WindSpeedGustMPH,Humidity,HourlyPrecipIn,Conditions,Clouds,dailyrainin,SoftwareType,DateUTC
2013-08-05 00:00:00,62.1,55.2,29.94,North,355,3.5,3.5,78,0.00,CLR,,0.00,WeatherDisplay:10.37,2013-08-05 04:00:00,
2013-08-05 00:01:00,62.1,55.5,29.94,North,355,3.5,3.5,79,0.00,CLR,,0.00,WeatherDisplay:10.37,2013-08-05 04:01:00,
2013-08-05 00:02:00,62.0,55.1,29.94,North,355,2.3,2.3,78,0.00,CLR,,0.00,WeatherDisplay:10.37,2013-08-05 04:02:00,
2013-08-05 00:06:00,61.8,55.2,29.95,NW,308,0.0,0.0,79,0.00,CLR,,0.00,WeatherDisplay:10.37,2013-08-05 04:06:00,
2013-08-05 00:12:00,61.5,54.9,29.95,NW,308,0.0,0.0,79,0.00,CLR,,0.00,WeatherDisplay:10.37,2013-08-05 04:12:00,
2013-08-05 00:17:00,61.2,55.0,29.95,NW,308,1.2,0.0,80,0.00,CLR,,0.00,WeatherDisplay:10.37,2013-08-05 04:17:00,
2013-08-05 00:22:00,61.0,54.8,29.95,NW,308,0.0,0.0,80,0.00,CLR,,0.00,WeatherDisplay:10.37,2013-08-05 04:22:00,
2013-08-05 00:27:00,60.7,54.8,29.95,NW,308,0.0,0.0,81,0.00,CLR,,0.00,WeatherDisplay:10.37,2013-08-05 04:27:00,
2013-08-05 00:32:00,60.4,54.9,29.95,NW,308,0.0,0.1,82,0.00,CLR,,0.00,WeatherDisplay:10.37,2013-08-05 04:32:00,
2013-08-05 00:37:00,60.0,54.8,29.95,NW,308,0.0,0.0,83,0.00,CLR,,0.00,WeatherDisplay:10.37,2013-08-05 04:37:00,
2013-08-05 00:42:00,59.7,54.5,29.95,NW,308,0.0,0.0,83,0.00,CLR,,0.00,WeatherDisplay:10.37,2013-08-05 04:42:00,
2013-08-05 00:47:00,59.4,54.6,29.95,NW,308,0.0,0.0,84,0.00,CLR,,0.00,WeatherDisplay:10.37,2013-08-05 04:47:00,
2013-08-05 00:52:00,59.0,54.5,29.95,NW,308,0.0,0.0,85,0.00,CLR,,0.00,WeatherDisplay:10.37,2013-08-05 04:52:00,
2013-08-05 00:57:00,59.0,54.5,29.96,NW,308,0.0,0.0,85,0.00,CLR,,0.00,WeatherDisplay:10.37,2013-08-05 04:57:00,
2013-08-05 01:02:00,58.7,54.2,29.95,NW,308,0.0,0.0,85,0.00,CLR,,0.00,WeatherDisplay:10.37,2013-08-05 05:02:00,
2013-08-05 01:07:00,58.4,54.5,29.95,NW,308,2.3,2.3,87,0.00,CLR,,0.00,WeatherDisplay:10.37,2013-08-05 05:07:00,
2013-08-05 01:12:00,58.1,54.2,29.95,NW,308,0.0,0.0,87,0.00,CLR,,0.00,WeatherDisplay:10.37,2013-08-05 05:12:00,
2013-08-05 01:17:00,57.9,54.4,29.95,NW,308,0.0,0.0,88,0.00,CLR,,0.00,WeatherDisplay:10.37,2013-08-05 05:17:00,
2013-08-05 01:22:00,57.7,54.2,29.95,NW,308,0.0,0.0,88,0.00,CLR,,0.00,WeatherDisplay:10.37,2013-08-05 05:22:00,
2013-08-05 01:27:00,57.5,54.3,29.95,NW,308,0.0,0.0,89,0.00,CLR,,0.00,WeatherDisplay:10.37,2013-08-05 05:27:00,
2013-08-05 01:32:00,57.2,54.0,29.95,NW,308,0.0,0.0,89,0.00,CLR,,0.00,WeatherDisplay:10.37,2013-08-05 05:32:00,
2013-08-05 01:37:00,57.0,54.1,29.95,NW,308,3.5,3.5,90,0.00,CLR,,0.00,WeatherDisplay:10.37,2013-08-05 05:37:00,
2013-08-05 01:42:00,56.9,54.0,29.95,NW,308,2.3,2.3,90,0.00,CLR,,0.00,WeatherDisplay:10.37,2013-08-05 05:42:00,
2013-08-05 01:47:00,56.8,54.2,29.95,NW,308,2.3,2.3,91,0.00,CLR,,0.00,WeatherDisplay:10.37,2013-08-05 05:47:00,
2013-08-05 01:52:00,56.7,54.1,29.95,NW,308,0.0,0.0,91,0.00,CLR,,0.00,WeatherDisplay:10.37,2013-08-05 05:52:00,
2013-08-05 01:57:00,56.5,53.9,29.95,NW,308,0.0,0.0,91,0.00,CLR,,0.00,WeatherDisplay:10.37,2013-08-05 05:57:00,
2013-08-05 02:02:00,56.3,54.0,29.95,NW,308,0.0,0.0,92,0.00,CLR,,0.00,WeatherDisplay:10.37,2013-08-05 06:02:00,
2013-08-05 02:07:00,56.1,53.8,29.95,NW,308,0.0,0.0,92,0.00,CLR,,0.00,WeatherDisplay:10.37,2013-08-05 06:07:00,
2013-08-05 02:12:00,55.9,53.6,29.95,NW,308,1.2,0.0,92,0.00,CLR,,0.00,WeatherDisplay:10.37,2013-08-05 06:12:00,
2013-08-05 02:17:00,55.8,53.8,29.95,NW,308,2.3,2.3,93,0.00,CLR,,0.00,WeatherDisplay:10.37,2013-08-05 06:17:00,
2013-08-05 02:22:00,55.7,53.7,29.95,NW,308,0.0,0.0,93,0.00,CLR,,0.00,WeatherDisplay:10.37,2013-08-05 06:22:00,
2013-08-05 02:27:00,55.5,53.5,29.96,NW,308,0.0,0.0,93,0.00,CLR,,0.00,WeatherDisplay:10.37,2013-08-05 06:27:00,
2013-08-05 02:32:00,55.3,53.3,29.96,NW,308,0.0,0.0,93,0.00,CLR,,0.00,WeatherDisplay:10.37,2013-08-05 06:32:00,
2013-08-05 02:37:00,55.2,53.2,29.96,NW,308,0.0,0.0,93,0.00,CLR,,0.00,WeatherDisplay:10.37,2013-08-05 06:37:00,
2013-08-05 02:42:00,55.1,53.1,29.96,NW,308,2.3,2.3,93,0.00,CLR,,0.00,WeatherDisplay:10.37,2013-08-05 06:42:00,
2013-08-05 02:47:00,55.1,53.4,29.96,NW,308,1.2,1.2,94,0.00,CLR,,0.00,WeatherDisplay:10.37,2013-08-05 06:47:00,
2013-08-05 02:52:00,55.1,53.4,29.96,NW,308,2.3,2.3,94,0.00,CLR,,0.00,WeatherDisplay:10.37,2013-08-05 06:52:00,
2013-08-05 02:57:00,55.0,53.3,29.96,NW,308,2.3,2.3,94,0.00,CLR,,0.00,WeatherDisplay:10.37,2013-08-05 06:57:00,
2013-08-05 03:02:00,54.9,53.2,29.96,NW,308,0.0,0.0,94,0.00,CLR,,0.00,WeatherDisplay:10.37,2013-08-05 07:02:00,
2013-08-05 03:07:00,54.8,53.1,29.96,NW,308,2.3,2.3,94,0.00,CLR,,0.00,WeatherDisplay:10.37,2013-08-05 07:07:00,
2013-08-05 03:12:00,54.8,53.1,29.96,NW,308,3.5,3.5,94,0.00,CLR,,0.00,WeatherDisplay:10.37,2013-08-05 07:12:00,
2013-08-05 03:17:00,54.9,53.2,29.96,NW,308,3.5,3.5,94,0.00,CLR,,0.00,WeatherDisplay:10.37,2013-08-05 07:17:00,
2013-08-05 03:22:00,55.0,53.6,29.96,NW,308,3.5,3.5,95,0.00,CLR,,0.00,WeatherDisplay:10.37,2013-08-05 07:22:00,
2013-08-05 03:27:00,55.1,53.7,29.96,NW,308,3.5,3.5,95,0.00,CLR,,0.00,WeatherDisplay:10.37,2013-08-05 07:27:00,
2013-08-05 03:32:00,55.1,53.4,29.96,NW,308,3.5,3.5,94,0.00,CLR,,0.00,WeatherDisplay:10.37,2013-08-05 07:32:00,
2013-08-05 03:37:00,55.1,53.4,29.96,NW,308,3.5,3.5,94,0.00,CLR,,0.00,WeatherDisplay:10.37,2013-08-05 07:37:00,
2013-08-05 03:42:00,55.1,53.4,29.97,NW,308,3.5,3.5,94,0.00,CLR,,0.00,WeatherDisplay:10.37,2013-08-05 07:42:00,
2013-08-05 03:47:00,55.1,53.4,29.97,NW,308,3.0,3.0,94,0.00,CLR,,0.00,WeatherDisplay:10.37,2013-08-05 07:47:00,
2013-08-05 03:52:00,55.2,53.5,29.97,NW,308,3.5,3.5,94,0.00,CLR,,0.00,WeatherDisplay:10.37,2013-08-05 07:52:00,
2013-08-05 03:57:00,55.1,53.4,29.97,NW,308,2.3,2.3,94,0.00,CLR,,0.00,WeatherDisplay:10.37,2013-08-05 07:57:00,
2013-08-05 04:02:00,55.2,53.5,29.97,NW,308,2.3,2.3,94,0.00,CLR,,0.00,WeatherDisplay:10.37,2013-08-05 08:02:00,
2013-08-05 04:07:00,55.1,53.4,29.97,NW,308,2.3,2.3,94,0.00,CLR,,0.00,WeatherDisplay:10.37,2013-08-05 08:07:00,
2013-08-05 04:12:00,55.1,53.4,29.97,NW,308,1.2,1.2,94,0.00,CLR,,0.00,WeatherDisplay:10.37,2013-08-05 08:12:00,
2013-08-05 04:17:00,55.1,53.4,29.97,NW,308,0.0,0.0,94,0.00,CLR,,0.00,WeatherDisplay:10.37,2013-08-05 08:17:00,
2013-08-05 04:22:00,55.0,53.6,29.97,NW,308,2.3,2.3,95,0.00,CLR,,0.00,WeatherDisplay:10.37,2013-08-05 08:22:00,
2013-08-05 04:27:00,55.1,53.7,29.97,NW,308,3.5,3.5,95,0.00,CLR,,0.00,WeatherDisplay:10.37,2013-08-05 08:27:00,
2013-08-05 04:32:00,55.3,53.9,29.97,NW,308,2.0,2.0,95,0.00,CLR,,0.00,WeatherDisplay:10.37,2013-08-05 08:32:00,
2013-08-05 04:38:00,55.3,53.9,29.97,NW,308,3.5,3.5,95,0.00,CLR,,0.00,WeatherDisplay:10.37,2013-08-05 08:38:00,
2013-08-05 04:43:00,55.4,54.0,29.97,NW,315,5.8,5.8,95,0.00,CLR,,0.00,WeatherDisplay:10.37,2013-08-05 08:43:00,
2013-08-05 04:48:00,55.8,54.4,29.97,NW,306,3.5,3.5,95,0.00,CLR,,0.00,WeatherDisplay:10.37,2013-08-05 08:48:00,
2013-08-05 04:53:00,55.9,54.5,29.97,NNW,329,3.5,3.5,95,0.00,CLR,,0.00,WeatherDisplay:10.37,2013-08-05 08:53:00,
2013-08-05 04:58:00,55.9,54.2,29.97,NNW,329,2.3,2.3,94,0.00,CLR,,0.00,WeatherDisplay:10.37,2013-08-05 08:58:00,
2013-08-05 05:03:00,55.9,54.2,29.98,NNW,329,0.0,0.0,94,0.00,CLR,,0.00,WeatherDisplay:10.37,2013-08-05 09:03:00,
2013-08-05 05:09:00,55.8,54.1,29.98,NNW,329,0.0,0.0,94,0.00,CLR,,0.00,WeatherDisplay:10.37,2013-08-05 09:09:00,
2013-08-05 05:14:00,55.7,54.0,29.98,NNW,329,1.2,1.2,94,0.00,CLR,,0.00,WeatherDisplay:10.37,2013-08-05 09:14:00,
2013-08-05 05:19:00,55.5,53.8,29.98,NNW,329,1.2,0.0,94,0.00,CLR,,0.00,WeatherDisplay:10.37,2013-08-05 09:19:00,
2013-08-05 05:26:00,55.4,53.7,29.98,NNW,329,1.2,1.2,94,0.00,CLR,,0.00,WeatherDisplay:10.37,2013-08-05 09:26:00,
2013-08-05 05:31:00,55.2,53.8,29.99,NNW,329,0.0,0.0,95,0.00,CLR,,0.00,WeatherDisplay:10.37,2013-08-05 09:31:00,
2013-08-05 05:36:00,55.1,53.7,29.99,NNW,329,0.0,0.0,95,0.00,CLR,,0.00,WeatherDisplay:10.37,2013-08-05 09:36:00,
2013-08-05 05:42:00,54.9,53.5,30.00,NNW,329,0.0,0.0,95,0.00,CLR,,0.00,WeatherDisplay:10.37,2013-08-05 09:42:00,
2013-08-05 05:48:00,54.8,53.4,30.00,NNW,329,0.0,0.0,95,0.00,CLR,,0.00,WeatherDisplay:10.37,2013-08-05 09:48:00,
2013-08-05 05:53:00,54.9,53.5,30.00,NNW,329,0.0,0.0,95,0.00,CLR,,0.00,WeatherDisplay:10.37,2013-08-05 09:53:00,
2013-08-05 05:58:00,54.9,53.5,30.00,NNW,329,0.0,0.0,95,0.00,CLR,,0.00,WeatherDisplay:10.37,2013-08-05 09:58:00,
2013-08-05 06:03:00,54.8,53.7,30.01,NNW,329,0.0,0.0,96,0.00,CLR,,0.00,WeatherDisplay:10.37,2013-08-05 10:03:00,
2013-08-05 06:08:00,54.8,53.7,30.01,NNW,329,2.3,2.3,96,0.00,CLR,,0.00,WeatherDisplay:10.37,2013-08-05 10:08:00,
2013-08-05 06:14:00,54.7,53.6,30.01,NNW,329,2.3,0.0,96,0.00,CLR,,0.00,WeatherDisplay:10.37,2013-08-05 10:14:00,
2013-08-05 06:19:00,54.7,53.6,30.01,NNW,329,0.0,0.0,96,0.00,CLR,,0.00,WeatherDisplay:10.37,2013-08-05 10:19:00,
2013-08-05 06:24:00,54.7,53.6,30.01,NNW,329,0.0,0.0,96,0.00,CLR,,0.00,WeatherDisplay:10.37,2013-08-05 10:24:00,
2013-08-05 06:29:00,54.7,53.6,30.01,NNW,329,0.0,0.0,96,0.00,CLR,,0.00,WeatherDisplay:10.37,2013-08-05 10:29:00,
2013-08-05 06:35:00,54.6,53.5,30.01,NNW,329,1.2,1.2,96,0.00,CLR,,0.00,WeatherDisplay:10.37,2013-08-05 10:35:00,
2013-08-05 06:40:00,54.7,53.6,30.02,NNW,329,0.0,0.0,96,0.00,CLR,,0.00,WeatherDisplay:10.37,2013-08-05 10:40:00,
2013-08-05 06:45:00,54.8,54.0,30.02,NNW,329,0.0,0.0,97,0.00,CLR,,0.00,WeatherDisplay:10.37,2013-08-05 10:45:00,
2013-08-05 06:50:00,54.9,54.1,30.01,NNW,329,0.0,0.1,97,0.00,CLR,,0.00,WeatherDisplay:10.37,2013-08-05 10:50:00,
2013-08-05 06:55:00,55.1,54.3,30.02,NNW,329,0.0,0.1,97,0.00,CLR,,0.00,WeatherDisplay:10.37,2013-08-05 10:55:00,
2013-08-05 07:00:00,55.3,54.5,30.02,NNW,329,2.3,2.3,97,0.00,CLR,,0.00,WeatherDisplay:10.37,2013-08-05 11:00:00,
2013-08-05 07:05:00,55.5,54.7,30.02,NNW,329,0.0,0.0,97,0.00,CLR,,0.00,WeatherDisplay:10.37,2013-08-05 11:05:00,
2013-08-05 07:10:00,55.8,55.0,30.02,NNW,329,1.2,1.2,97,0.00,CLR,,0.00,WeatherDisplay:10.37,2013-08-05 11:10:00,
2013-08-05 07:16:00,56.1,55.3,30.02,NNW,329,1.2,0.0,97,0.00,CLR,,0.00,WeatherDisplay:10.37,2013-08-05 11:16:00,
2013-08-05 07:21:00,56.6,55.8,30.02,NNW,329,2.0,2.0,97,0.00,CLR,,0.00,WeatherDisplay:10.37,2013-08-05 11:21:00,
2013-08-05 07:27:00,57.2,56.4,30.02,NNW,342,3.5,3.5,97,0.00,CLR,,0.00,WeatherDisplay:10.37,2013-08-05 11:27:00,
2013-08-05 07:32:00,57.8,56.4,30.02,NNW,330,4.6,4.6,95,0.00,CLR,,0.00,WeatherDisplay:10.37,2013-08-05 11:32:00,
2013-08-05 07:37:00,58.6,56.6,30.02,North,9,4.0,4.0,93,0.00,CLR,,0.00,WeatherDisplay:10.37,2013-08-05 11:37:00,
2013-08-05 07:42:00,59.1,56.8,30.02,NNW,338,0.0,0.0,92,0.00,CLR,,0.00,WeatherDisplay:10.37,2013-08-05 11:42:00,
2013-08-05 07:47:00,59.7,56.8,30.02,NNW,339,2.3,2.3,90,0.00,CLR,,0.00,WeatherDisplay:10.37,2013-08-05 11:47:00,
2013-08-05 07:53:00,60.2,56.3,30.02,NE,43,3.5,3.5,87,0.00,CLR,,0.00,WeatherDisplay:10.37,2013-08-05 11:53:00,
2013-08-05 07:58:00,60.8,56.3,30.02,WNW,289,4.6,4.6,85,0.00,CLR,,0.00,WeatherDisplay:10.37,2013-08-05 11:58:00,
2013-08-05 08:03:00,61.2,56.3,30.02,North,350,9.2,9.2,84,0.00,CLR,,0.00,WeatherDisplay:10.37,2013-08-05 12:03:00,
2013-08-05 08:08:00,61.6,56.0,30.02,NNW,338,6.9,6.9,82,0.00,CLR,,0.00,WeatherDisplay:10.37,2013-08-05 12:08:00,
2013-08-05 08:13:00,62.0,56.1,30.02,NNW,338,3.5,3.5,81,0.00,CLR,,0.00,WeatherDisplay:10.37,2013-08-05 12:13:00,
2013-08-05 08:18:00,62.7,55.4,30.02,NW,318,11.5,11.5,77,0.00,CLR,,0.00,WeatherDisplay:10.37,2013-08-05 12:18:00,
2013-08-05 08:23:00,63.3,55.2,30.02,NNW,334,11.5,11.5,75,0.00,CLR,,0.00,WeatherDisplay:10.37,2013-08-05 12:23:00,
2013-08-05 08:28:00,63.8,54.6,30.03,NE,48,11.5,11.5,72,0.00,CLR,,0.00,WeatherDisplay:10.37,2013-08-05 12:28:00,
2013-08-05 08:33:00,64.1,54.9,30.02,NNW,329,11.5,11.5,72,0.00,CLR,,0.00,WeatherDisplay:10.37,2013-08-05 12:33:00,
2013-08-05 08:39:00,64.6,55.4,30.03,North,355,6.0,6.0,72,0.00,CLR,,0.00,WeatherDisplay:10.37,2013-08-05 12:39:00,
2013-08-05 08:44:00,65.1,55.1,30.03,NNW,339,8.1,8.1,70,0.00,CLR,,0.00,WeatherDisplay:10.37,2013-08-05 12:44:00,
2013-08-05 08:50:00,65.3,55.7,30.03,WNW,289,6.9,6.9,71,0.00,CLR,,0.00,WeatherDisplay:10.37,2013-08-05 12:50:00,
2013-08-05 08:55:00,65.7,56.0,30.03,NW,316,3.5,4.9,71,0.00,CLR,,0.00,WeatherDisplay:10.37,2013-08-05 12:55:00,
2013-08-05 09:00:00,66.2,56.5,30.03,SSW,192,0.0,0.0,71,0.00,CLR,,0.00,WeatherDisplay:10.37,2013-08-05 13:00:00,
2013-08-05 09:07:00,67.1,56.2,30.03,North,349,15.0,15.0,68,0.00,CLR,,0.00,WeatherDisplay:10.37,2013-08-05 13:07:00,
2013-08-05 09:12:00,67.3,56.0,30.03,North,5,8.1,8.1,67,0.00,CLR,,0.00,WeatherDisplay:10.37,2013-08-05 13:12:00,
2013-08-05 09:17:00,67.4,55.2,30.03,North,360,8.1,8.1,65,0.00,CLR,,0.00,WeatherDisplay:10.37,2013-08-05 13:17:00,
2013-08-05 09:22:00,67.4,54.4,30.03,NNW,342,5.8,5.8,63,0.00,CLR,,0.00,WeatherDisplay:10.37,2013-08-05 13:22:00,
2013-08-05 09:27:00,67.2,53.3,30.03,WNW,294,6.9,6.9,61,0.00,CLR,,0.00,WeatherDisplay:10.37,2013-08-05 13:27:00,
2013-08-05 09:33:00,67.5,53.1,30.03,NW,321,13.8,13.8,60,0.00,CLR,,0.00,WeatherDisplay:10.37,2013-08-05 13:33:00,
2013-08-05 09:38:00,67.4,53.9,30.03,WNW,286,11.5,11.5,62,0.00,CLR,,0.00,WeatherDisplay:10.37,2013-08-05 13:38:00,
2013-08-05 09:43:00,67.6,53.7,30.03,NW,325,9.2,9.2,61,0.00,CLR,,0.00,WeatherDisplay:10.37,2013-08-05 13:43:00,
2013-08-05 09:48:00,67.9,53.5,30.03,North,349,11.5,11.5,60,0.00,CLR,,0.00,WeatherDisplay:10.37,2013-08-05 13:48:00,
2013-08-05 09:53:00,67.9,54.8,30.03,NNW,338,5.8,5.8,63,0.00,CLR,,0.00,WeatherDisplay:10.37,2013-08-05 13:53:00,
2013-08-05 09:59:00,68.3,53.9,30.04,WNW,294,8.1,8.1,60,0.00,CLR,,0.00,WeatherDisplay:10.37,2013-08-05 13:59:00,
2013-08-05 10:04:00,68.5,53.6,30.04,West,279,6.9,6.9,59,0.00,CLR,,0.00,WeatherDisplay:10.37,2013-08-05 14:04:00,
2013-08-05 10:09:00,68.7,53.8,30.04,WNW,299,6.9,6.9,59,0.00,CLR,,0.00,WeatherDisplay:10.37,2013-08-05 14:09:00,
2013-08-05 10:14:00,69.4,54.4,30.04,NE,51,4.0,4.0,59,0.00,CLR,,0.00,WeatherDisplay:10.37,2013-08-05 14:14:00,
2013-08-05 10:19:00,69.6,54.2,30.04,WNW,300,5.8,5.8,58,0.00,CLR,,0.00,WeatherDisplay:10.37,2013-08-05 14:19:00,
2013-08-05 10:25:00,69.7,54.3,30.04,WNW,301,5.8,5.8,58,0.00,CLR,,0.00,WeatherDisplay:10.37,2013-08-05 14:25:00,
2013-08-05 10:30:00,69.9,54.4,30.04,NNE,24,9.0,9.0,58,0.00,CLR,,0.00,WeatherDisplay:10.37,2013-08-05 14:30:00,
2013-08-05 10:35:00,69.8,53.9,30.04,WNW,298,4.6,4.6,57,0.00,CLR,,0.00,WeatherDisplay:10.37,2013-08-05 14:35:00,
2013-08-05 10:40:00,70.3,53.9,30.04,NNE,21,3.5,3.5,56,0.00,CLR,,0.00,WeatherDisplay:10.37,2013-08-05 14:40:00,
2013-08-05 10:45:00,70.6,53.1,30.04,NNW,343,8.1,8.1,54,0.00,CLR,,0.00,WeatherDisplay:10.37,2013-08-05 14:45:00,
2013-08-05 10:50:00,70.6,52.6,30.04,NW,310,8.1,8.1,53,0.00,CLR,,0.00,WeatherDisplay:10.37,2013-08-05 14:50:00,
2013-08-05 10:56:00,70.4,51.9,30.04,NNE,28,13.8,13.8,52,0.00,CLR,,0.00,WeatherDisplay:10.37,2013-08-05 14:56:00,
2013-08-05 11:02:00,70.2,52.3,30.04,ESE,104,5.8,5.8,53,0.00,CLR,,0.00,WeatherDisplay:10.37,2013-08-05 15:02:00,
2013-08-05 11:07:00,70.3,53.4,30.04,ENE,73,11.5,11.5,55,0.00,CLR,,0.00,WeatherDisplay:10.37,2013-08-05 15:07:00,
2013-08-05 11:12:00,70.4,52.4,30.04,East,86,5.8,5.8,53,0.00,CLR,,0.00,WeatherDisplay:10.37,2013-08-05 15:12:00,
2013-08-05 11:17:00,70.5,54.5,30.04,NNW,333,4.6,4.6,57,0.00,CLR,,0.00,WeatherDisplay:10.37,2013-08-05 15:17:00,
2013-08-05 11:22:00,70.8,53.3,30.04,NNW,344,10.4,10.4,54,0.00,CLR,,0.00,WeatherDisplay:10.37,2013-08-05 15:22:00,
2013-08-05 11:27:00,71.1,54.6,30.04,NW,312,3.5,3.5,56,0.00,CLR,,0.00,WeatherDisplay:10.37,2013-08-05 15:27:00,
2013-08-05 11:33:00,71.6,54.1,30.04,NNE,17,3.5,3.5,54,0.00,CLR,,0.00,WeatherDisplay:10.37,2013-08-05 15:33:00,
2013-08-05 11:38:00,71.9,53.8,30.04,North,355,3.5,3.5,53,0.00,CLR,,0.00,WeatherDisplay:10.37,2013-08-05 15:38:00,
2013-08-05 11:43:00,71.5,53.5,30.04,NNE,13,3.5,3.5,53,0.00,CLR,,0.00,WeatherDisplay:10.37,2013-08-05 15:43:00,
2013-08-05 11:49:00,71.2,52.1,30.04,NW,316,6.9,6.9,51,0.00,CLR,,0.00,WeatherDisplay:10.37,2013-08-05 15:49:00,
2013-08-05 11:54:00,71.5,52.4,30.03,ENE,60,4.6,4.6,51,0.00,CLR,,0.00,WeatherDisplay:10.37,2013-08-05 15:54:00,
2013-08-05 11:59:00,71.9,53.8,30.03,NNE,15,3.0,3.0,53,0.00,CLR,,0.00,WeatherDisplay:10.37,2013-08-05 15:59:00,
2013-08-05 12:04:00,72.1,53.5,30.03,NE,51,6.9,6.9,52,0.00,CLR,,0.00,WeatherDisplay:10.37,2013-08-05 16:04:00,
2013-08-05 12:09:00,72.1,54.0,30.03,NW,309,9.2,9.2,53,0.00,CLR,,0.00,WeatherDisplay:10.37,2013-08-05 16:09:00,
2013-08-05 12:14:00,72.1,54.0,30.03,North,349,9.2,9.2,53,0.00,CLR,,0.00,WeatherDisplay:10.37,2013-08-05 16:14:00,
2013-08-05 12:19:00,72.3,54.2,30.03,NNE,32,5.0,5.0,53,0.00,CLR,,0.00,WeatherDisplay:10.37,2013-08-05 16:19:00,
2013-08-05 12:25:00,72.7,52.4,30.03,NW,325,5.8,5.8,49,0.00,CLR,,0.00,WeatherDisplay:10.37,2013-08-05 16:25:00,
2013-08-05 12:30:00,72.8,53.6,30.03,NNE,24,11.5,11.5,51,0.00,CLR,,0.00,WeatherDisplay:10.37,2013-08-05 16:30:00,
2013-08-05 12:35:00,72.9,52.6,30.03,NNW,338,12.7,12.7,49,0.00,CLR,,0.00,WeatherDisplay:10.37,2013-08-05 16:35:00,
2013-08-05 12:40:00,72.9,53.2,30.03,WSW,248,1.2,0.0,50,0.00,CLR,,0.00,WeatherDisplay:10.37,2013-08-05 16:40:00,
2013-08-05 12:45:00,73.1,52.8,30.03,NE,51,6.9,6.9,49,0.00,CLR,,0.00,WeatherDisplay:10.37,2013-08-05 16:45:00,
2013-08-05 12:50:00,73.1,52.8,30.03,West,277,9.2,9.2,49,0.00,CLR,,0.00,WeatherDisplay:10.37,2013-08-05 16:50:00,
2013-08-05 12:55:00,72.8,53.6,30.02,NNE,15,8.0,8.0,51,0.00,CLR,,0.00,WeatherDisplay:10.37,2013-08-05 16:55:00,
2013-08-05 13:00:00,72.9,53.7,30.02,NW,306,7.0,7.0,51,0.00,CLR,,0.00,WeatherDisplay:10.37,2013-08-05 17:00:00,
2013-08-05 13:05:00,72.8,54.1,30.02,NNE,17,4.6,4.6,52,0.00,CLR,,0.00,WeatherDisplay:10.37,2013-08-05 17:05:00,
2013-08-05 13:10:00,73.0,53.8,30.02,NNW,348,11.5,11.5,51,0.00,CLR,,0.00,WeatherDisplay:10.37,2013-08-05 17:10:00,
2013-08-05 13:15:00,73.2,55.0,30.02,South,191,8.1,8.1,53,0.00,CLR,,0.00,WeatherDisplay:10.37,2013-08-05 17:15:00,
2013-08-05 13:22:00,73.4,54.2,30.01,NNE,27,10.4,10.4,51,0.00,CLR,,0.00,WeatherDisplay:10.37,2013-08-05 17:22:00,
2013-08-05 13:27:00,73.1,53.9,30.01,WNW,282,10.4,10.4,51,0.00,CLR,,0.00,WeatherDisplay:10.37,2013-08-05 17:27:00,
2013-08-05 13:33:00,73.2,54.5,30.01,South,191,4.0,4.0,52,0.00,CLR,,0.00,WeatherDisplay:10.37,2013-08-05 17:33:00,
2013-08-05 13:38:00,73.7,55.5,30.01,NNE,26,8.0,8.0,53,0.00,CLR,,0.00,WeatherDisplay:10.37,2013-08-05 17:38:00,
2013-08-05 13:43:00,73.9,55.2,30.01,WSW,250,3.5,3.5,52,0.00,CLR,,0.00,WeatherDisplay:10.37,2013-08-05 17:43:00,
2013-08-05 13:48:00,74.3,55.0,30.01,SE,140,6.9,6.9,51,0.00,CLR,,0.00,WeatherDisplay:10.37,2013-08-05 17:48:00,
2013-08-05 13:53:00,74.6,55.3,30.01,NW,319,8.1,8.1,51,0.00,CLR,,0.00,WeatherDisplay:10.37,2013-08-05 17:53:00,
2013-08-05 13:59:00,74.7,55.4,30.00,NW,315,4.0,4.0,51,0.00,CLR,,0.00,WeatherDisplay:10.37,2013-08-05 17:59:00,
2013-08-05 14:04:00,74.6,54.2,30.00,NNE,31,6.9,6.9,49,0.00,CLR,,0.00,WeatherDisplay:10.37,2013-08-05 18:04:00,
2013-08-05 14:09:00,74.6,54.7,30.00,WNW,300,3.5,3.5,50,0.00,CLR,,0.00,WeatherDisplay:10.37,2013-08-05 18:09:00,
2013-08-05 14:14:00,74.9,55.0,30.00,NNE,23,10.4,10.4,50,0.00,CLR,,0.00,WeatherDisplay:10.37,2013-08-05 18:14:00,
2013-08-05 14:20:00,75.2,55.3,30.00,SE,146,2.3,2.3,50,0.00,CLR,,0.00,WeatherDisplay:10.37,2013-08-05 18:20:00,
2013-08-05 14:25:00,76.0,57.1,30.00,North,355,8.1,8.1,52,0.00,CLR,,0.00,WeatherDisplay:10.37,2013-08-05 18:25:00,
2013-08-05 14:30:00,76.4,56.4,30.00,WNW,287,5.8,5.8,50,0.00,CLR,,0.00,WeatherDisplay:10.37,2013-08-05 18:30:00,
2013-08-05 14:35:00,76.1,56.1,30.00,NE,38,6.9,6.9,50,0.00,CLR,,0.00,WeatherDisplay:10.37,2013-08-05 18:35:00,
2013-08-05 14:40:00,75.5,55.6,30.00,North,355,5.8,5.8,50,0.00,CLR,,0.00,WeatherDisplay:10.37,2013-08-05 18:40:00,
2013-08-05 14:45:00,75.3,57.0,30.00,West,262,5.8,5.8,53,0.00,CLR,,0.00,WeatherDisplay:10.37,2013-08-05 18:45:00,
2013-08-05 14:50:00,75.4,57.1,30.00,NW,313,4.6,4.6,53,0.00,CLR,,0.00,WeatherDisplay:10.37,2013-08-05 18:50:00,
2013-08-05 14:55:00,75.8,55.8,30.00,WNW,294,3.5,3.5,50,0.00,CLR,,0.00,WeatherDisplay:10.37,2013-08-05 18:55:00,
2013-08-05 15:00:00,76.4,55.8,30.00,NW,307,6.9,6.9,49,0.00,CLR,,0.00,WeatherDisplay:10.37,2013-08-05 19:00:00,
2013-08-05 15:05:00,76.5,57.0,30.00,North,355,3.5,3.5,51,0.00,CLR,,0.00,WeatherDisplay:10.37,2013-08-05 19:05:00,
2013-08-05 15:10:00,76.9,56.3,29.99,NW,304,10.4,10.4,49,0.00,CLR,,0.00,WeatherDisplay:10.37,2013-08-05 19:10:00,
2013-08-05 15:15:00,76.6,57.1,29.99,SW,236,4.6,4.6,51,0.00,CLR,,0.00,WeatherDisplay:10.37,2013-08-05 19:15:00,
2013-08-05 15:20:00,76.9,56.3,29.99,NNE,12,5.8,5.8,49,0.00,CLR,,0.00,WeatherDisplay:10.37,2013-08-05 19:20:00,
2013-08-05 15:25:00,76.9,56.8,29.99,West,277,5.8,5.8,50,0.00,CLR,,0.00,WeatherDisplay:10.37,2013-08-05 19:25:00,
2013-08-05 15:30:00,77.0,55.2,29.99,North,360,12.7,12.7,47,0.00,CLR,,0.00,WeatherDisplay:10.37,2013-08-05 19:30:00,
2013-08-05 15:35:00,76.6,56.6,29.98,ENE,69,3.5,3.5,50,0.00,CLR,,0.00,WeatherDisplay:10.37,2013-08-05 19:35:00,
2013-08-05 15:41:00,76.8,56.2,29.98,WNW,300,3.5,3.5,49,0.00,CLR,,0.00,WeatherDisplay:10.37,2013-08-05 19:41:00,
2013-08-05 15:46:00,77.0,57.5,29.98,NNW,335,5.0,5.0,51,0.00,CLR,,0.00,WeatherDisplay:10.37,2013-08-05 19:46:00,
2013-08-05 15:52:00,77.2,56.0,29.99,WSW,255,2.3,2.3,48,0.00,CLR,,0.00,WeatherDisplay:10.37,2013-08-05 19:52:00,
2013-08-05 15:58:00,76.7,55.5,29.98,NNE,12,4.6,4.6,48,0.00,CLR,,0.00,WeatherDisplay:10.37,2013-08-05 19:58:00,
2013-08-05 16:03:00,76.7,55.0,29.98,NW,313,8.1,8.1,47,0.00,CLR,,0.00,WeatherDisplay:10.37,2013-08-05 20:03:00,
2013-08-05 16:08:00,76.7,55.0,29.98,NW,306,5.8,5.8,47,0.00,CLR,,0.00,WeatherDisplay:10.37,2013-08-05 20:08:00,
2013-08-05 16:14:00,76.9,55.7,29.98,WNW,288,3.5,3.5,48,0.00,CLR,,0.00,WeatherDisplay:10.37,2013-08-05 20:14:00,
2013-08-05 16:19:00,77.2,56.0,29.98,SW,225,6.9,6.9,48,0.00,CLR,,0.00,WeatherDisplay:10.37,2013-08-05 20:19:00,
2013-08-05 16:25:00,77.5,55.7,29.98,West,281,4.0,4.0,47,0.00,CLR,,0.00,WeatherDisplay:10.37,2013-08-05 20:25:00,
2013-08-05 16:30:00,77.5,56.3,29.98,NNE,27,3.5,3.5,48,0.00,CLR,,0.00,WeatherDisplay:10.37,2013-08-05 20:30:00,
2013-08-05 16:35:00,77.4,56.7,29.98,North,355,6.0,6.0,49,0.00,CLR,,0.00,WeatherDisplay:10.37,2013-08-05 20:35:00,
2013-08-05 16:40:00,77.1,54.7,29.98,WNW,298,5.8,5.8,46,0.00,CLR,,0.00,WeatherDisplay:10.37,2013-08-05 20:40:00,
2013-08-05 16:45:00,77.1,57.0,29.98,SW,216,2.3,2.3,50,0.00,CLR,,0.00,WeatherDisplay:10.37,2013-08-05 20:45:00,
2013-08-05 16:50:00,77.2,55.4,29.98,NW,312,5.8,5.8,47,0.00,CLR,,0.00,WeatherDisplay:10.37,2013-08-05 20:50:00,
2013-08-05 16:55:00,77.5,55.7,29.97,WNW,286,1.2,1.2,47,0.00,CLR,,0.00,WeatherDisplay:10.37,2013-08-05 20:55:00,
2013-08-05 17:01:00,77.8,56.0,29.97,NW,313,8.0,8.0,47,0.00,CLR,,0.00,WeatherDisplay:10.37,2013-08-05 21:01:00,
2013-08-05 17:06:00,77.6,55.8,29.98,NW,306,0.0,0.4,47,0.00,CLR,,0.00,WeatherDisplay:10.37,2013-08-05 21:06:00,
2013-08-05 17:11:00,77.5,55.1,29.98,NW,318,2.3,2.3,46,0.00,CLR,,0.00,WeatherDisplay:10.37,2013-08-05 21:11:00,
2013-08-05 17:16:00,77.6,55.2,29.98,NNW,346,5.8,5.8,46,0.00,CLR,,0.00,WeatherDisplay:10.37,2013-08-05 21:16:00,
2013-08-05 17:21:00,77.3,54.9,29.98,NNW,340,8.1,8.1,46,0.00,CLR,,0.00,WeatherDisplay:10.37,2013-08-05 21:21:00,
2013-08-05 17:26:00,76.9,55.7,29.98,NNW,331,3.0,3.0,48,0.00,CLR,,0.00,WeatherDisplay:10.37,2013-08-05 21:26:00,
2013-08-05 17:33:00,76.1,56.1,29.98,North,11,3.5,3.5,50,0.00,CLR,,0.00,WeatherDisplay:10.37,2013-08-05 21:33:00,
2013-08-05 17:38:00,75.6,56.2,29.98,North,11,0.0,0.0,51,0.00,CLR,,0.00,WeatherDisplay:10.37,2013-08-05 21:38:00,
2013-08-05 17:44:00,75.2,55.8,29.98,North,5,4.0,4.0,51,0.00,CLR,,0.00,WeatherDisplay:10.37,2013-08-05 21:44:00,
2013-08-05 17:49:00,74.9,55.6,29.98,NW,316,3.5,3.5,51,0.00,CLR,,0.00,WeatherDisplay:10.37,2013-08-05 21:49:00,
2013-08-05 17:54:00,74.8,54.9,29.98,NW,318,3.5,3.5,50,0.00,CLR,,0.00,WeatherDisplay:10.37,2013-08-05 21:54:00,
2013-08-05 17:59:00,74.7,56.9,29.98,NW,318,1.2,1.2,54,0.00,CLR,,0.00,WeatherDisplay:10.37,2013-08-05 21:59:00,
2013-08-05 18:04:00,74.6,56.9,29.99,West,280,1.2,1.2,54,0.00,CLR,,0.00,WeatherDisplay:10.37,2013-08-05 22:04:00,
2013-08-05 18:09:00,74.4,56.7,29.98,West,280,1.2,1.2,54,0.00,CLR,,0.00,WeatherDisplay:10.37,2013-08-05 22:09:00,
2013-08-05 18:14:00,74.3,56.1,29.98,WSW,257,0.0,0.3,53,0.00,CLR,,0.00,WeatherDisplay:10.37,2013-08-05 22:14:00,
2013-08-05 18:20:00,74.1,55.9,29.99,WSW,257,1.0,1.0,53,0.00,CLR,,0.00,WeatherDisplay:10.37,2013-08-05 22:20:00,
2013-08-05 18:26:00,73.9,56.7,29.98,WSW,257,0.0,0.0,55,0.00,CLR,,0.00,WeatherDisplay:10.37,2013-08-05 22:26:00,
2013-08-05 18:31:00,73.7,56.0,29.98,West,269,2.3,2.3,54,0.00,CLR,,0.00,WeatherDisplay:10.37,2013-08-05 22:31:00,
2013-08-05 18:36:00,73.6,56.9,29.98,West,269,0.0,0.0,56,0.00,CLR,,0.00,WeatherDisplay:10.37,2013-08-05 22:36:00,
2013-08-05 18:41:00,73.3,58.1,29.99,West,269,0.0,0.0,59,0.00,CLR,,0.00,WeatherDisplay:10.37,2013-08-05 22:41:00,
2013-08-05 18:46:00,72.8,57.6,29.99,West,269,0.0,0.0,59,0.00,CLR,,0.00,WeatherDisplay:10.37,2013-08-05 22:46:00,
2013-08-05 18:52:00,72.4,58.6,29.99,West,269,0.0,0.0,62,0.00,CLR,,0.00,WeatherDisplay:10.37,2013-08-05 22:52:00,
2013-08-05 18:57:00,72.0,58.3,29.99,West,269,0.0,0.0,62,0.00,CLR,,0.00,WeatherDisplay:10.37,2013-08-05 22:57:00,
2013-08-05 19:02:00,71.7,59.3,29.99,West,269,0.0,0.0,65,0.00,CLR,,0.00,WeatherDisplay:10.37,2013-08-05 23:02:00,
2013-08-05 19:07:00,71.3,58.5,30.00,West,269,0.0,0.0,64,0.00,CLR,,0.00,WeatherDisplay:10.37,2013-08-05 23:07:00,
2013-08-05 19:12:00,71.1,59.2,30.00,West,269,0.0,0.0,66,0.00,CLR,,0.00,WeatherDisplay:10.37,2013-08-05 23:12:00,
2013-08-05 19:17:00,70.8,59.7,30.00,West,269,0.0,0.0,68,0.00,CLR,,0.00,WeatherDisplay:10.37,2013-08-05 23:17:00,
2013-08-05 19:22:00,70.5,59.4,30.00,West,269,0.0,0.0,68,0.00,CLR,,0.00,WeatherDisplay:10.37,2013-08-05 23:22:00,
2013-08-05 19:27:00,70.1,59.9,30.00,West,269,0.0,0.0,70,0.00,CLR,,0.00,WeatherDisplay:10.37,2013-08-05 23:27:00,
2013-08-05 19:32:00,69.9,60.5,30.00,West,269,0.0,0.0,72,0.00,CLR,,0.00,WeatherDisplay:10.37,2013-08-05 23:32:00,
2013-08-05 19:37:00,69.4,59.6,30.01,West,269,0.0,0.0,71,0.00,CLR,,0.00,WeatherDisplay:10.37,2013-08-05 23:37:00,
2013-08-05 19:42:00,69.0,60.0,30.01,West,269,0.0,0.0,73,0.00,CLR,,0.00,WeatherDisplay:10.37,2013-08-05 23:42:00,
2013-08-05 19:48:00,68.5,59.5,30.01,West,269,0.0,0.0,73,0.00,CLR,,0.00,WeatherDisplay:10.37,2013-08-05 23:48:00,
2013-08-05 19:53:00,68.0,59.4,30.01,West,269,0.0,0.0,74,0.00,CLR,,0.00,WeatherDisplay:10.37,2013-08-05 23:53:00,
2013-08-05 19:58:00,67.6,58.6,30.01,West,269,0.0,0.0,73,0.00,CLR,,0.00,WeatherDisplay:10.37,2013-08-05 23:58:00,
2013-08-05 20:04:00,67.2,59.0,30.01,West,269,0.0,0.0,75,0.00,CLR,,0.00,WeatherDisplay:10.37,2013-08-06 00:04:00,
2013-08-05 20:09:00,66.8,59.4,30.01,West,269,0.0,0.0,77,0.00,CLR,,0.00,WeatherDisplay:10.37,2013-08-06 00:09:00,
2013-08-05 20:14:00,66.4,59.0,30.01,West,269,0.0,0.0,77,0.00,CLR,,0.00,WeatherDisplay:10.37,2013-08-06 00:14:00,
2013-08-05 20:19:00,66.1,59.4,30.01,West,269,0.0,0.0,79,0.00,CLR,,0.00,WeatherDisplay:10.37,2013-08-06 00:19:00,
2013-08-05 20:24:00,65.7,58.3,30.01,West,269,0.0,0.0,77,0.00,CLR,,0.00,WeatherDisplay:10.37,2013-08-06 00:24:00,
2013-08-05 20:29:00,65.3,58.3,30.02,West,269,0.0,0.0,78,0.00,CLR,,0.00,WeatherDisplay:10.37,2013-08-06 00:29:00,
2013-08-05 20:34:00,64.9,58.2,30.02,West,269,0.0,0.0,79,0.00,CLR,,0.00,WeatherDisplay:10.37,2013-08-06 00:34:00,
2013-08-05 20:39:00,64.7,58.4,30.02,West,269,0.0,0.0,80,0.00,CLR,,0.00,WeatherDisplay:10.37,2013-08-06 00:39:00,
2013-08-05 20:44:00,64.4,58.4,30.02,West,269,0.0,0.0,81,0.00,CLR,,0.00,WeatherDisplay:10.37,2013-08-06 00:44:00,
2013-08-05 20:50:00,64.2,58.6,30.02,West,269,0.0,0.0,82,0.00,CLR,,0.00,WeatherDisplay:10.37,2013-08-06 00:50:00,
2013-08-05 20:55:00,64.0,58.4,30.02,West,269,0.0,0.0,82,0.00,CLR,,0.00,WeatherDisplay:10.37,2013-08-06 00:55:00,
2013-08-05 21:00:00,63.7,58.4,30.02,West,269,0.0,0.0,83,0.00,CLR,,0.00,WeatherDisplay:10.37,2013-08-06 01:00:00,
2013-08-05 21:05:00,63.5,58.2,30.02,West,269,0.0,0.0,83,0.00,SCT,,0.00,WeatherDisplay:10.37,2013-08-06 01:05:00,
2013-08-05 21:10:00,63.2,57.9,30.02,West,269,0.0,0.0,83,0.00,SCT,,0.00,WeatherDisplay:10.37,2013-08-06 01:10:00,
2013-08-05 21:15:00,63.0,58.1,30.02,West,269,0.0,0.0,84,0.00,SCT,,0.00,WeatherDisplay:10.37,2013-08-06 01:15:00,
2013-08-05 21:21:00,62.8,57.9,30.02,West,269,0.0,0.0,84,0.00,SCT,,0.00,WeatherDisplay:10.37,2013-08-06 01:21:00,
2013-08-05 21:26:00,62.6,57.7,30.03,West,269,0.0,0.0,84,0.00,SCT,,0.00,WeatherDisplay:10.37,2013-08-06 01:26:00,
2013-08-05 21:32:00,62.3,57.7,30.02,West,269,0.0,0.0,85,0.00,SCT,,0.00,WeatherDisplay:10.37,2013-08-06 01:32:00,
2013-08-05 21:37:00,62.2,57.6,30.03,West,269,0.0,0.0,85,0.00,SCT,,0.00,WeatherDisplay:10.37,2013-08-06 01:37:00,
2013-08-05 21:42:00,62.0,57.4,30.02,West,269,0.0,0.0,85,0.00,SCT,,0.00,WeatherDisplay:10.37,2013-08-06 01:42:00,
2013-08-05 21:47:00,61.9,57.7,30.02,West,269,0.0,0.0,86,0.00,SCT,,0.00,WeatherDisplay:10.37,2013-08-06 01:47:00,
2013-08-05 21:52:00,61.7,57.5,30.02,West,269,0.0,0.0,86,0.00,SCT,,0.00,WeatherDisplay:10.37,2013-08-06 01:52:00,
2013-08-05 21:58:00,61.6,57.4,30.02,West,269,0.0,0.0,86,0.00,SCT,,0.00,WeatherDisplay:10.37,2013-08-06 01:58:00,
2013-08-05 22:03:00,61.4,57.5,30.02,West,269,0.0,0.0,87,0.00,CLR,,0.00,WeatherDisplay:10.37,2013-08-06 02:03:00,
2013-08-05 22:08:00,61.3,57.4,30.02,West,269,0.0,0.0,87,0.00,CLR,,0.00,WeatherDisplay:10.37,2013-08-06 02:08:00,
2013-08-05 22:13:00,61.2,57.3,30.02,West,269,0.0,0.0,87,0.00,CLR,,0.00,WeatherDisplay:10.37,2013-08-06 02:13:00,
2013-08-05 22:18:00,61.0,57.4,30.02,West,269,0.0,0.0,88,0.00,CLR,,0.00,WeatherDisplay:10.37,2013-08-06 02:18:00,
2013-08-05 22:23:00,60.9,57.3,30.02,West,269,0.0,0.0,88,0.00,CLR,,0.00,WeatherDisplay:10.37,2013-08-06 02:23:00,
2013-08-05 22:28:00,60.7,57.1,30.02,West,269,0.0,0.0,88,0.00,CLR,,0.00,WeatherDisplay:10.37,2013-08-06 02:28:00,
2013-08-05 22:33:00,60.6,57.3,30.02,West,269,0.0,0.0,89,0.00,CLR,,0.00,WeatherDisplay:10.37,2013-08-06 02:33:00,
2013-08-05 22:38:00,60.5,57.6,30.02,West,269,0.0,0.0,90,0.00,CLR,,0.00,WeatherDisplay:10.37,2013-08-06 02:38:00,
2013-08-05 22:43:00,60.4,57.5,30.02,West,269,0.0,0.0,90,0.00,CLR,,0.00,WeatherDisplay:10.37,2013-08-06 02:43:00,
2013-08-05 22:49:00,60.2,57.3,30.02,West,269,0.0,0.0,90,0.00,CLR,,0.00,WeatherDisplay:10.37,2013-08-06 02:49:00,
2013-08-05 22:54:00,60.1,57.2,30.02,West,269,0.0,0.0,90,0.00,CLR,,0.00,WeatherDisplay:10.37,2013-08-06 02:54:00,
2013-08-05 22:59:00,60.0,57.4,30.02,West,269,0.0,0.0,91,0.00,CLR,,0.00,WeatherDisplay:10.37,2013-08-06 02:59:00,
2013-08-05 23:04:00,60.0,57.4,30.02,West,269,0.0,0.0,91,0.00,CLR,,0.00,WeatherDisplay:10.37,2013-08-06 03:04:00,
2013-08-05 23:09:00,59.9,57.3,30.02,West,269,0.0,0.0,91,0.00,CLR,,0.00,WeatherDisplay:10.37,2013-08-06 03:09:00,
2013-08-05 23:16:00,59.8,57.2,30.02,West,269,0.0,0.0,91,0.00,CLR,,0.00,WeatherDisplay:10.37,2013-08-06 03:16:00,
2013-08-05 23:22:00,59.7,57.4,30.02,West,269,0.0,0.0,92,0.00,CLR,,0.00,WeatherDisplay:10.37,2013-08-06 03:22:00,
2013-08-05 23:28:00,59.6,57.3,30.02,West,269,0.0,0.0,92,0.00,CLR,,0.00,WeatherDisplay:10.37,2013-08-06 03:28:00,
2013-08-05 23:33:00,59.5,57.2,30.02,West,269,0.0,0.0,92,0.00,CLR,,0.00,WeatherDisplay:10.37,2013-08-06 03:33:00,
2013-08-05 23:38:00,59.4,57.1,30.02,West,269,0.0,0.0,92,0.00,CLR,,0.00,WeatherDisplay:10.37,2013-08-06 03:38:00,
2013-08-05 23:43:00,59.3,57.0,30.02,West,269,0.0,0.0,92,0.00,CLR,,0.00,WeatherDisplay:10.37,2013-08-06 03:43:00,
2013-08-05 23:48:00,59.0,57.0,30.03,West,269,0.0,0.0,93,0.00,CLR,,0.00,WeatherDisplay:10.37,2013-08-06 03:48:00,
2013-08-05 23:53:00,59.0,57.0,30.02,West,269,0.0,0.0,93,0.00,CLR,,0.00,WeatherDisplay:10.37,2013-08-06 03:53:00,
2013-08-05 23:58:00,59.0,57.0,30.03,West,269,0.0,0.0,93,0.00,CLR,,0.00,WeatherDisplay:10.37,2013-08-06 03:58:00,